SBRP Airport Information

Runway Information
Runway 18 Length 6890 ft width 148 ft
Elevation 0 ft Threshold 0 ft Heading 0
Runway 36 Length 6890 ft Width 148 ft
Elevation 0 ft Threshold 0 ft Heading 0
Airport Frequencies
Type AFIS Name RIBEIRAO R Frequency 118 MHZ
Type APP Name RIBEIRAO A Frequency 119.55 MHZ
Type ATIS Name ATIS Frequency 127.425 MHZ
Type TWR Name RIBEIRAO T Frequency 118 MHZ
Airport Navaids
Type NDB Name Ribeirao Frequency 330 KHZ
Airport Weather Information & NOTAM
ADDS - METARS form results

(0134 UTC 19 August 2018)
 
METAR text: SBRP 190100Z 12006KT CAVOK 20/13 Q1021
Conditions at: SBRP (LEITE LOPES/RIBE, BR) observed 0100 UTC 19 August 2018
Temperature: 20.0°C (68°F)
Dewpoint: 13.0°C (55°F) [RH = 64%]
Pressure (altimeter): 30.15 inches Hg (1021.0 mb)
Winds: from the ESE (120 degrees) at 7 MPH (6 knots; 3.1 m/s)
Visibility: 6 or more miles (10+ km)
Ceiling: ceiling and visibility are OK
Clouds: unknown
Weather: no significant weather observed at this time